GW5276 Weather Reports


time (UTC)temp
C
wind
direction
speed
KPH
gust
KPH
rain 1hr
cm
rain 24hr
cm
rain mn
cm
humidity
%
barometer
mb
20260510045424 7 342 0.0 0.0 0.00 0.00 0.00 97 1012.4
20260510044920 7 342 0.0 0.0 0.00 0.00 0.00 97 1012.6
20260510044417 7 342 0.0 0.0 0.00 0.00 0.00 97 1012.5
20260510043914 7 338 0.0 0.0 0.00 0.00 0.00 97 1012.6
20260510043410 7 338 0.0 0.0 0.00 0.00 0.00 97 1012.4
20260510042908 7 337 0.0 0.0 0.00 0.00 0.00 97 1012.5
20260510042404 7 337 0.0 0.0 0.00 0.00 0.00 97 1012.2
20260510041900 7 340 0.0 0.0 0.00 0.00 0.00 97 1012.4
20260510041357 7 338 0.0 0.0 0.00 0.00 0.00 96 1012.3
20260510040855 7 339 0.0 0.0 0.00 0.00 0.00 97 1012.3
20260510040352 7 339 0.0 0.0 0.00 0.00 0.00 96 1012.3
20260510035847 7 339 0.0 0.0 0.00 0.00 0.00 97 1012.3
20260510035343 7 338 0.0 0.0 0.00 0.00 0.00 96 1012.1
20260510034839 8 335 0.0 0.0 0.00 0.00 0.00 96 1011.9
20260510034337 8 335 0.0 0.0 0.00 0.00 0.00 96 1011.7
20260510033833 8 334 0.0 0.0 0.00 0.00 0.00 96 1011.6
20260510033330 8 334 0.0 0.0 0.00 0.00 0.00 96 1011.7
20260510032826 8 333 1.6 1.6 0.00 0.00 0.00 96 1011.7
20260510032323 8 333 0.0 1.6 0.00 0.00 0.00 96 1011.9
20260510031819 8 333 0.0 1.6 0.00 0.00 0.00 96 1011.4
20260510031315 8 334 0.0 0.0 0.00 0.00 0.00 96 1011.5
20260510030815 8 334 0.0 0.0 0.00 0.00 0.00 95 1011.6
20260510030311 8 334 0.0 0.0 0.00 0.00 0.00 96 1011.7
20260510025809 8 334 0.0 0.0 0.00 0.00 0.00 95 1011.6
20260510025306 8 334 0.0 0.0 0.00 0.00 0.00 95 1011.7
20260510024802 8 295 0.0 0.0 0.00 0.00 0.00 95 1011.5
20260510024300 8 277 0.0 0.0 0.00 0.00 0.00 95 1011.4
20260510023756 8 277 0.0 0.0 0.00 0.00 0.00 95 1011.4
20260510023253 8 277 0.0 0.0 0.00 0.00 0.00 95 1011.4
20260510022749 9 277 0.0 0.0 0.00 0.00 0.00 95 1011.3
20260510022249 9 277 0.0 0.0 0.00 0.00 0.00 95 1011.2
20260510021748 9 277 0.0 0.0 0.00 0.00 0.00 94 1011.1
20260510021247 9 277 0.0 0.0 0.00 0.00 0.00 95 1011.5
20260510020742 9 277 0.0 0.0 0.00 0.00 0.00 94 1011.2
20260510020242 9 277 0.0 0.0 0.00 0.00 0.00 94 1011.0
20260510015739 9 277 0.0 0.0 0.00 0.00 0.00 94 1011.0
20260510015235 10 236 0.0 0.0 0.00 0.00 0.00 94 1010.9
20260510014730 10 236 0.0 0.0 0.00 0.00 0.00 93 1010.7
20260510014228 10 236 0.0 0.0 0.00 0.00 0.00 93 1010.9
20260510013723 10 236 0.0 0.0 0.00 0.00 0.00 93 1010.6
20260510013219 10 236 0.0 0.0 0.00 0.00 0.00 93 1010.8
20260510012719 10 235 0.0 0.0 0.00 0.00 0.00 93 1010.8
20260510012214 10 235 0.0 0.0 0.00 0.00 0.00 93 1010.3
20260510011709 10 235 0.0 0.0 0.00 0.00 0.00 92 1010.5
20260510011205 10 235 0.0 0.0 0.00 0.00 0.00 92 1010.4
20260510010701 11 235 0.0 0.0 0.00 0.00 0.00 91 1010.5
20260510010158 11 235 0.0 0.0 0.00 0.00 0.00 91 1010.3
20260510005654 11 235 0.0 0.0 0.00 0.00 0.00 91 1010.3
20260510005151 11 234 0.0 0.0 0.00 0.00 0.00 91 1010.1
20260510004649 12 234 0.0 0.0 0.00 0.00 0.00 90 1010.1
20260510004147 12 235 0.0 0.0 0.00 0.00 0.00 89 1010.1
20260510003644 12 234 0.0 0.0 0.00 0.00 0.00 89 1010.0
20260510003140 12 235 0.0 0.0 0.00 0.00 0.00 88 1009.9
20260510002635 13 235 0.0 0.0 0.00 0.00 0.00 86 1009.8
20260510002132 13 234 0.0 0.0 0.00 0.00 0.00 85 1009.7
20260510001629 13 234 0.0 0.0 0.00 0.00 0.00 83 1009.6
20260510001128 14 230 0.0 0.0 0.00 0.00 0.00 81 1009.6
20260510000627 15 230 0.0 3.2 0.00 0.00 0.00 79 1009.5
20260510000125 16 122 0.0 0.0 0.00 0.00 0.00 76 1009.6
20260509235621 16 131 0.0 0.0 0.00 0.00 0.00 75 1009.6
20260509235118 17 242 0.0 0.0 0.00 0.00 0.00 69 1009.5
20260509234614 17 151 1.6 1.6 0.00 0.00 0.00 64 1009.3
20260509234112 17 329 0.0 0.0 0.00 0.00 0.00 64 1009.3
20260509233609 18 313 0.0 1.6 0.00 0.00 0.00 66 1009.3
20260509233107 18 328 1.6 3.2 0.00 0.00 0.00 60 1009.2
20260509232603 18 297 3.2 4.8 0.00 0.00 0.00 61 1009.3
20260509232100 18 277 3.2 4.8 0.00 0.00 0.00 61 1009.1
20260509231556 18 262 1.6 4.8 0.00 0.00 0.00 60 1009.3
20260509231054 19 242 1.6 3.2 0.00 0.00 0.00 61 1008.9
20260509230550 20 270 3.2 4.8 0.00 0.00 0.00 56 1009.4
20260509230048 20 261 1.6 4.8 0.00 0.00 0.00 56 1009.5
20260509225543 20 233 8.0 14.5 0.00 0.00 0.00 54 1009.4
20260509225039 20 229 3.2 9.7 0.00 0.00 0.00 57 1009.5
20260509224535 20 218 3.2 9.7 0.00 0.00 0.00 54 1009.7
20260509224032 20 293 3.2 3.2 0.00 0.00 0.00 55 1009.4
20260509223529 20 232 3.2 11.3 0.00 0.00 0.00 57 1009.6
20260509223027 20 201 3.2 9.7 0.00 0.00 0.00 56 1009.5
20260509222522 20 222 3.2 12.9 0.00 0.00 0.00 55 1009.6
20260509222018 20 237 9.7 12.9 0.00 0.00 0.00 53 1009.7
20260509221514 20 75 1.6 12.9 0.00 0.00 0.00 54 1009.5
20260509221010 20 281 3.2 9.7 0.00 0.00 0.00 56 1009.6
20260509220506 20 289 3.2 9.7 0.00 0.00 0.00 56 1009.6
20260509220003 20 305 1.6 9.7 0.00 0.00 0.00 55 1009.7
20260509215458 20 251 6.4 12.9 0.00 0.00 0.00 55 1009.8
20260509214956 20 237 3.2 6.4 0.00 0.00 0.00 55 1009.6
20260509214453 20 277 3.2 6.4 0.00 0.00 0.00 56 1009.7
20260509213949 20 302 6.4 14.5 0.00 0.00 0.00 55 1009.7
20260509213445 20 229 3.2 6.4 0.00 0.00 0.00 57 1009.8
20260509212943 20 255 6.4 12.9 0.00 0.00 0.00 56 1009.8
20260509212440 20 244 3.2 9.7 0.00 0.00 0.00 57 1009.8
20260509211936 19 248 1.6 4.8 0.00 0.00 0.00 56 1009.7
20260509211432 19 219 4.8 9.7 0.00 0.00 0.00 57 1009.6
20260509210928 19 216 3.2 6.4 0.00 0.00 0.00 57 1009.7
20260509210426 19 216 3.2 4.8 0.00 0.00 0.00 58 1009.7
20260509205921 19 207 4.8 6.4 0.00 0.00 0.00 57 1009.8
20260509205420 19 233 3.2 3.2 0.00 0.00 0.00 58 1009.7
20260509204917 18 217 1.6 11.3 0.00 0.00 0.00 59 1009.7
20260509204413 19 273 6.4 11.3 0.00 0.00 0.00 57 1009.8
20260509203910 19 222 9.7 14.5 0.00 0.00 0.00 56 1009.6
20260509203406 19 238 1.6 3.2 0.00 0.00 0.00 58 1009.7
20260509202904 19 220 6.4 6.4 0.00 0.00 0.00 57 1009.6
20260509202359 19 268 1.6 1.6 0.00 0.00 0.00 56 1009.5
20260509201854 19 244 1.6 4.8 0.00 0.00 0.00 57 1009.8
20260509201350 19 222 6.4 9.7 0.00 0.00 0.00 57 1009.5
20260509200847 19 256 6.4 11.3 0.00 0.00 0.00 57 1009.8
20260509200342 18 277 4.8 11.3 0.00 0.00 0.00 58 1009.8
20260509195839 19 247 3.2 9.7 0.00 0.00 0.00 61 1010.0
20260509195339 18 250 3.2 4.8 0.00 0.00 0.00 57 1009.9
20260509194839 18 218 3.2 9.7 0.00 0.00 0.00 60 1010.1
20260509194335 18 272 4.8 6.4 0.00 0.00 0.00 60 1010.2
20260509193833 18 274 4.8 6.4 0.00 0.00 0.00 61 1010.1
20260509193332 18 285 6.4 11.3 0.00 0.00 0.00 58 1009.9
20260509192829 19 260 4.8 6.4 0.00 0.00 0.00 58 1010.1
20260509192320 19 300 4.8 6.4 0.00 0.00 0.00 56 1010.1
20260509191814 18 222 1.6 12.9 0.00 0.00 0.00 55 1010.1
20260509191311 18 263 3.2 6.4 0.00 0.00 0.00 56 1010.1
20260509190807 18 267 8.0 17.7 0.00 0.00 0.00 57 1010.0
20260509190304 18 261 1.6 9.7 0.00 0.00 0.00 56 1010.2
20260509185801 18 297 3.2 6.4 0.00 0.00 0.00 57 1010.0
20260509185257 18 257 4.8 11.3 0.00 0.00 0.00 57 1010.1
20260509184755 18 240 4.8 4.8 0.00 0.00 0.00 58 1009.8
20260509184253 18 266 4.8 6.4 0.00 0.00 0.00 55 1009.9
20260509183749 18 230 3.2 3.2 0.00 0.00 0.00 56 1009.8
20260509183244 18 283 6.4 6.4 0.00 0.00 0.00 57 1010.2
20260509182740 18 277 4.8 4.8 0.00 0.00 0.00 59 1009.9
20260509182237 18 281 1.6 6.4 0.00 0.00 0.00 57 1009.8
20260509181729 18 236 4.8 6.4 0.00 0.00 0.00 59 1009.7
20260509181226 18 224 1.6 4.8 0.00 0.00 0.00 60 1009.9
20260509180723 18 229 3.2 4.8 0.00 0.00 0.00 59 1009.7
20260509180220 18 222 1.6 11.3 0.00 0.00 0.00 59 1009.9
20260509175716 17 298 3.2 9.7 0.00 0.00 0.00 58 1010.0
20260509175212 17 210 4.8 11.3 0.00 0.00 0.00 57 1010.1
20260509174708 17 316 9.7 12.9 0.00 0.00 0.00 56 1010.0
20260509174204 18 338 0.0 1.6 0.00 0.00 0.00 60 1009.9
20260509173700 17 334 3.2 11.3 0.00 0.00 0.00 58 1010.0
20260509173156 17 355 1.6 4.8 0.00 0.00 0.00 56 1010.2
20260509172652 17 332 3.2 9.7 0.00 0.00 0.00 60 1010.3
20260509172149 17 335 1.6 12.9 0.00 0.00 0.00 58 1010.1
20260509171643 17 342 0.0 4.8 0.00 0.00 0.00 60 1010.5
20260509171140 17 333 9.7 11.3 0.00 0.00 0.00 55 1010.2
20260509170637 17 340 1.6 11.3 0.00 0.00 0.00 60 1010.3
20260509170133 17 336 3.2 9.7 0.00 0.00 0.00 57 1010.3
20260509165632 17 336 3.2 9.7 0.00 0.00 0.00 59 1010.2
20260509165128 17 341 1.6 4.8 0.00 0.00 0.00 60 1010.3
20260509164624 17 344 1.6 3.2 0.00 0.00 0.00 62 1010.4
20260509164120 17 342 3.2 3.2 0.00 0.00 0.00 62 1010.3
20260509163618 17 346 0.0 3.2 0.00 0.00 0.00 64 1010.4
20260509163112 16 356 0.0 3.2 0.00 0.00 0.00 66 1010.3
20260509162610 16 342 1.6 1.6 0.00 0.00 0.00 65 1010.3
20260509162105 16 342 1.6 1.6 0.00 0.00 0.00 67 1010.4
20260509161603 16 344 0.0 0.0 0.00 0.00 0.00 65 1010.4
20260509161102 16 356 1.6 1.6 0.00 0.00 0.00 65 1010.5
20260509160559 16 0 0.0 1.6 0.00 0.00 0.00 68 1010.4
20260509160054 16 348 1.6 1.6 0.00 0.00 0.00 66 1010.6
20260509155551 16 357 0.0 3.2 0.00 0.00 0.00 67 1010.6
20260509155047 16 12 3.2 4.8 0.00 0.00 0.00 66 1010.6
20260509154543 16 7 3.2 4.8 0.00 0.00 0.00 65 1010.7
20260509154041 17 19 6.4 6.4 0.00 0.00 0.00 65 1010.7
20260509153537 17 346 0.0 1.6 0.00 0.00 0.00 65 1010.6
20260509153034 16 351 0.0 3.2 0.00 0.00 0.00 65 1010.8
20260509152530 16 351 0.0 3.2 0.00 0.00 0.00 67 1010.9
20260509152027 15 343 1.6 1.6 0.00 0.00 0.00 70 1010.9
20260509151523 15 344 1.6 1.6 0.00 0.00 0.00 72 1010.9
20260509151021 15 343 3.2 4.8 0.00 0.00 0.00 71 1011.0
20260509150518 15 351 0.0 1.6 0.00 0.00 0.00 74 1011.3
20260509150017 15 348 1.6 3.2 0.00 0.00 0.00 73 1010.9
20260509145512 15 348 0.0 0.0 0.00 0.00 0.00 72 1011.0
20260509145007 15 347 1.6 1.6 0.00 0.00 0.00 73 1011.1
20260509144505 15 353 0.0 0.0 0.00 0.00 0.00 72 1011.1
20260509144001 15 358 0.0 3.2 0.00 0.00 0.00 73 1011.1
20260509143458 15 350 1.6 4.8 0.00 0.00 0.00 73 1011.0
20260509142955 15 5 3.2 4.8 0.00 0.00 0.00 74 1011.0
20260509142452 14 11 1.6 4.8 0.00 0.00 0.00 75 1010.9
20260509141947 14 354 0.0 1.6 0.00 0.00 0.00 75 1011.0
20260509141444 14 352 0.0 1.6 0.00 0.00 0.00 78 1010.9
20260509140941 14 2 3.2 3.2 0.00 0.00 0.00 77 1010.8
20260509140437 14 357 0.0 4.8 0.00 0.00 0.00 77 1010.8
20260509135936 13 1 3.2 3.2 0.00 0.00 0.00 78 1011.0
20260509135432 13 358 1.6 3.2 0.00 0.00 0.00 78 1011.1
20260509134930 13 359 1.6 3.2 0.00 0.00 0.00 80 1011.1
20260509134427 13 358 0.0 4.8 0.00 0.00 0.00 80 1011.2
20260509133924 13 359 3.2 3.2 0.00 0.00 0.00 80 1011.3
20260509133421 13 347 1.6 3.2 0.00 0.00 0.00 81 1011.5
20260509132919 13 357 0.0 0.0 0.00 0.00 0.00 80 1011.5
20260509132417 13 356 0.0 0.0 0.00 0.00 0.00 80 1011.5
20260509131914 13 0 1.6 3.2 0.00 0.00 0.00 85 1011.6
20260509131411 13 351 0.0 3.2 0.00 0.00 0.00 85 1011.6
20260509130908 12 348 0.0 0.0 0.00 0.00 0.00 87 1011.4
20260509130403 12 350 0.0 0.0 0.00 0.00 0.00 87 1011.3
20260509125900 12 350 0.0 0.0 0.00 0.00 0.00 88 1011.5
20260509125356 12 353 0.0 0.0 0.00 0.00 0.00 90 1011.5
20260509124852 11 353 0.0 0.0 0.00 0.00 0.00 91 1011.6
20260509124350 11 353 0.0 0.0 0.00 0.00 0.00 91 1011.4
20260509123848 11 353 0.0 0.0 0.00 0.00 0.00 93 1011.4
20260509123345 11 352 0.0 0.0 0.00 0.00 0.00 93 1011.7
20260509122840 11 351 0.0 0.0 0.00 0.00 0.00 93 1011.6
20260509122337 11 350 0.0 0.0 0.00 0.00 0.00 94 1011.7
20260509121834 10 350 0.0 0.0 0.00 0.00 0.00 94 1011.6
20260509121331 10 350 0.0 0.0 0.00 0.00 0.00 93 1011.6
20260509120830 10 350 0.0 0.0 0.00 0.00 0.00 93 1011.5
20260509120327 10 350 0.0 0.0 0.00 0.00 0.00 93 1011.6
20260509115825 10 350 0.0 0.0 0.00 0.00 0.00 93 1011.5
20260509115322 10 349 0.0 0.0 0.00 0.00 0.00 93 1011.5
20260509114820 10 349 0.0 0.0 0.00 0.00 0.00 93 1011.4
20260509114318 10 349 0.0 0.0 0.00 0.00 0.00 93 1011.7
20260509113817 10 349 0.0 0.0 0.00 0.00 0.00 94 1011.5
20260509113313 10 349 0.0 0.0 0.00 0.00 0.00 94 1011.7
20260509112810 10 349 0.0 0.0 0.00 0.00 0.00 94 1011.6
20260509112308 10 349 0.0 0.0 0.00 0.00 0.00 94 1011.4
20260509111804 10 349 0.0 0.0 0.00 0.00 0.00 94 1011.5
20260509111301 10 349 0.0 0.0 0.00 0.00 0.00 94 1011.4
20260509110759 10 349 0.0 0.0 0.00 0.00 0.00 94 1011.5
20260509110255 10 349 0.0 0.0 0.00 0.00 0.00 94 1011.4
20260509105753 10 349 0.0 0.0 0.00 0.00 0.00 95 1011.3
20260509105250 10 349 0.0 0.0 0.00 0.00 0.00 95 1011.3
20260509104747 10 349 0.0 0.0 0.00 0.00 0.00 95 1011.2
20260509104244 10 349 0.0 0.0 0.00 0.00 0.00 95 1011.1
20260509103742 10 349 0.0 0.0 0.00 0.00 0.00 94 1011.5
20260509103239 10 349 0.0 0.0 0.00 0.00 0.00 94 1011.2
20260509102738 10 349 0.0 0.0 0.00 0.00 0.00 94 1011.2
20260509102234 10 349 0.0 0.0 0.00 0.00 0.00 94 1011.4
20260509101730 10 349 0.0 0.0 0.00 0.00 0.00 94 1011.2
20260509101227 10 349 0.0 0.0 0.00 0.00 0.00 94 1011.3
20260509100724 10 349 0.0 0.0 0.00 0.00 0.00 94 1011.3
20260509100221 10 349 0.0 0.0 0.00 0.00 0.00 94 1011.3
20260509095718 10 349 0.0 0.0 0.00 0.00 0.00 94 1011.4
20260509095215 10 349 0.0 0.0 0.00 0.00 0.00 94 1011.4
20260509094712 10 349 0.0 0.0 0.00 0.00 0.00 94 1011.4
20260509094209 10 349 0.0 0.0 0.00 0.00 0.00 94 1011.6
20260509093708 10 349 0.0 0.0 0.00 0.00 0.00 93 1011.4
20260509093204 10 349 0.0 0.0 0.00 0.00 0.00 93 1011.5
20260509092702 10 347 0.0 0.0 0.00 0.00 0.00 93 1011.6
20260509092200 10 354 0.0 0.0 0.00 0.00 0.00 93 1011.6
20260509091658 10 355 0.0 0.0 0.00 0.00 0.00 92 1011.7
20260509091154 10 355 0.0 0.0 0.00 0.00 0.00 92 1011.9
20260509090652 10 355 0.0 0.0 0.00 0.00 0.00 92 1011.6
20260509090149 10 354 0.0 0.0 0.00 0.00 0.00 92 1011.6
20260509085646 10 1 0.0 0.0 0.00 0.00 0.00 92 1011.6
20260509085137 10 1 0.0 0.0 0.00 0.00 0.00 91 1011.3
20260509084635 10 1 0.0 0.0 0.00 0.00 0.00 91 1011.5
20260509084131 10 355 0.0 0.0 0.00 0.00 0.00 91 1011.4
20260509083629 10 5 1.6 1.6 0.00 0.00 0.00 91 1011.4
20260509083125 10 350 0.0 0.0 0.00 0.00 0.00 91 1011.6
20260509082623 10 31 3.2 4.8 0.00 0.00 0.00 93 1011.9
20260509082119 10 353 0.0 0.0 0.00 0.00 0.00 93 1011.5
20260509081616 10 353 0.0 0.0 0.00 0.00 0.00 93 1011.4
20260509081114 10 347 0.0 0.0 0.00 0.00 0.00 93 1011.5
20260509080612 10 347 0.0 0.0 0.00 0.00 0.00 93 1011.1
20260509080109 10 347 0.0 0.0 0.00 0.00 0.00 93 1011.2
20260509075607 10 347 0.0 0.0 0.00 0.00 0.00 93 1011.1
20260509075105 10 347 0.0 0.0 0.00 0.00 0.00 93 1011.4
20260509074601 10 347 0.0 0.0 0.00 0.00 0.00 93 1011.2
20260509074057 10 355 0.0 0.0 0.00 0.00 0.00 92 1011.2
20260509073554 10 355 0.0 0.0 0.00 0.00 0.00 92 1011.2
20260509073050 10 355 0.0 0.0 0.00 0.00 0.00 92 1011.0
20260509072546 10 351 0.0 0.0 0.00 0.00 0.00 93 1010.9
20260509072043 10 345 0.0 0.0 0.00 0.00 0.00 92 1011.0
20260509071535 10 352 0.0 0.0 0.00 0.00 0.00 92 1010.9
20260509071033 10 352 0.0 0.0 0.00 0.00 0.00 92 1011.0
20260509070530 10 347 0.0 0.0 0.00 0.00 0.00 92 1010.8
20260509070026 10 2 0.0 0.0 0.00 0.00 0.00 92 1010.8
20260509065521 10 354 0.0 0.0 0.00 0.00 0.00 91 1011.1
20260509065018 10 3 0.0 0.0 0.00 0.00 0.00 91 1011.1
20260509064515 10 3 0.0 0.0 0.00 0.00 0.00 91 1011.2
20260509064014 10 349 0.0 0.0 0.00 0.00 0.00 91 1011.1
20260509063513 10 349 0.0 0.0 0.00 0.00 0.00 90 1010.9
20260509063011 10 347 0.0 0.0 0.00 0.00 0.00 90 1011.1
20260509062508 10 347 0.0 0.0 0.00 0.00 0.00 91 1010.9
20260509062006 10 347 0.0 0.0 0.00 0.00 0.00 90 1011.0
20260509061503 10 347 0.0 0.0 0.00 0.00 0.00 90 1010.8
20260509061000 10 347 0.0 0.0 0.00 0.00 0.00 90 1010.9
20260509060457 10 347 0.0 0.0 0.00 0.00 0.00 90 1010.7
20260509055953 10 347 0.0 0.0 0.00 0.00 0.00 90 1010.9
20260509055448 10 347 0.0 0.0 0.00 0.00 0.00 90 1010.8
20260509054945 10 347 0.0 0.0 0.00 0.00 0.00 90 1010.8
20260509054441 10 347 0.0 0.0 0.00 0.00 0.00 90 1011.1
20260509053940 10 347 0.0 0.0 0.00 0.00 0.00 90 1011.1
20260509053438 10 347 0.0 0.0 0.00 0.00 0.00 90 1011.0
20260509052935 10 347 0.0 0.0 0.00 0.00 0.00 91 1011.2
20260509052432 10 347 0.0 0.0 0.00 0.00 0.00 91 1011.3
20260509051930 10 347 0.0 0.0 0.00 0.00 0.00 91 1011.3
20260509051428 10 347 0.0 0.0 0.00 0.00 0.00 91 1011.2
20260509050924 10 347 0.0 0.0 0.00 0.00 0.00 91 1011.2
20260509050421 10 347 0.0 0.0 0.00 0.00 0.00 90 1011.3
20260509045918 10 347 0.0 0.0 0.00 0.00 0.00 89 1011.5